Location: Boston
(42.3580°N, 71.0600°W)
Time: 23:09:39
(UTC-04:00)

Vanguard 3 - Visible Passes

Search period start: 20 October 2017 00:00
Search period end: 30 October 2017 00:00
Orbit: 510 x 3263 km, 33.3° (Epoch: 20 October)

Date Brightness Start Highest point End Pass type
(mag) Time Alt. Az. Time Alt. Az. Time Alt. Az.
20 Oct 11.0 01:47:01 11° SE 01:47:01 11° SE 01:47:52 10° ESE visible
20 Oct 10.0 03:51:38 26° S 03:56:07 30° SSE 04:04:28 10° ESE visible
20 Oct 9.2 05:57:41 10° WSW 06:09:12 44° S 06:15:55 10° ESE visible
21 Oct 10.5 02:42:15 24° SE 02:42:15 24° SE 02:50:11 10° ESE visible
21 Oct 9.5 04:46:51 22° SW 04:54:52 41° SSE 05:02:55 10° E visible
22 Oct 11.0 01:32:48 12° ESE 01:32:48 12° ESE 01:34:21 10° ESE visible
22 Oct 10.0 03:37:23 34° S 03:40:06 36° SSE 03:49:28 10° E visible
22 Oct 9.2 05:41:59 13° WSW 05:53:29 48° S 06:00:52 10° ESE visible
23 Oct 10.4 02:27:52 27° SE 02:27:52 27° SE 02:35:18 10° E visible
23 Oct 9.5 04:32:28 31° SW 04:38:57 46° S 04:47:49 10° E visible
24 Oct 11.0 01:18:18 13° ESE 01:18:18 13° ESE 01:19:53 10° ESE visible
24 Oct 9.9 03:22:54 41° S 03:23:57 41° SSE 03:34:19 10° E visible
24 Oct 9.2 05:27:28 19° WSW 05:37:39 52° S 05:45:44 10° ESE visible
25 Oct 10.4 02:13:16 29° SE 02:13:16 29° SE 02:20:10 10° E visible
25 Oct 9.5 04:17:51 39° SW 04:22:54 51° S 04:32:37 10° E visible
25 Oct 9.1 06:23:29 10° W 06:36:07 49° SSW 06:43:19 10° ESE visible
26 Oct 11.1 01:03:36 13° ESE 01:03:36 13° ESE 01:04:56 10° E visible
26 Oct 9.8 03:08:11 46° SSE 03:08:11 46° SSE 03:19:03 10° E visible
26 Oct 9.3 05:12:46 26° WSW 05:21:43 55° S 05:30:32 10° ESE visible
27 Oct 10.5 01:58:30 29° ESE 01:58:30 29° ESE 02:04:49 10° E visible
27 Oct 9.5 04:03:04 47° SSW 04:06:45 55° S 04:17:19 10° E visible
27 Oct 9.2 06:07:38 12° W 06:20:15 50° SSW 06:28:05 10° ESE visible
28 Oct 11.2 00:48:46 12° E 00:48:46 12° E 00:49:38 10° E visible
28 Oct 9.9 02:53:21 48° SE 02:53:21 48° SE 03:03:37 10° E visible
28 Oct 9.4 04:57:55 32° WSW 05:05:40 57° S 05:15:15 10° ESE visible
29 Oct 10.6 01:43:36 28° ESE 01:43:36 28° ESE 01:49:18 10° E visible
29 Oct 9.6 03:48:10 55° SSW 03:50:27 58° S 04:01:56 10° E visible
29 Oct 9.3 05:52:45 17° W 06:04:15 51° SSW 06:12:48 10° SE visible
